When you browse on this site, cookies collect data to enhance your experience and personalize the content and advertising you see.
Visit our Privacy Policy to learn more. By continuing to use the site, you agree to this use of cookies and data.
  • In Schweiz
  • Länderverzeichnis
  • Für 7 Tage
  • Wassertemperatur
  • Satellitenkarten
  • Wetterkarte
  • Widgets
  • user-avatar
    Anmelden

    Stündliche Wetter Plavni

    Heute, 20 Juli, Samstag

    Zeit Temperatur Niederschläge Wind Luftdruck Luftfeuchtigkeit
    00:00 +22°C° 0 mm 3 m/S 761 mmHg 59%
    01:00 +21°C° 0 mm 3 m/S 761 mmHg 59%
    02:00 +20°C° 0 mm 2 m/S 761 mmHg 60%
    03:00 +20°C° 0 mm 2 m/S 762 mmHg 62%
    04:00 +21°C° 0 mm 1 m/S 762 mmHg 63%
    05:00 +20°C° 0 mm 1 m/S 762 mmHg 64%
    06:00 +22°C° 0 mm 1 m/S 762 mmHg 57%
    07:00 +25°C° 0 mm 1 m/S 762 mmHg 50%
    08:00 +27°C° 0 mm 1 m/S 762 mmHg 44%
    09:00 +28°C° 0 mm 2 m/S 762 mmHg 41%
    10:00 +30°C° 0 mm 3 m/S 762 mmHg 37%
    11:00 +31°C° 0 mm 3 m/S 762 mmHg 33%
    12:00 +33°C° 0 mm 3 m/S 762 mmHg 33%
    13:00 +33°C° 0 mm 3 m/S 762 mmHg 32%
    14:00 +34°C° 0 mm 3 m/S 762 mmHg 32%
    15:00 +33°C° 0 mm 4 m/S 762 mmHg 35%
    16:00 +32°C° 0 mm 4 m/S 762 mmHg 38%
    17:00 +30°C° 0 mm 5 m/S 762 mmHg 41%
    18:00 +28°C° 0.2 mm 4 m/S 762 mmHg 48%
    19:00 +27°C° 0.2 mm 4 m/S 762 mmHg 56%
    20:00 +25°C° 0.2 mm 3 m/S 762 mmHg 64%
    21:00 +24°C° 0.4 mm 3 m/S 762 mmHg 67%
    22:00 +22°C° 0.4 mm 3 m/S 762 mmHg 69%
    23:00 +22°C° 0.4 mm 3 m/S 762 mmHg 72%

    Morgen, 21 Juli, Sonntag

    Zeit Temperatur Niederschläge Wind Luftdruck Luftfeuchtigkeit
    00:00 +21°C° 0.3 mm 2 m/S 762 mmHg 72%
    01:00 +21°C° 0.3 mm 2 m/S 762 mmHg 72%
    02:00 +22°C° 0.3 mm 1 m/S 762 mmHg 72%
    03:00 +21°C° 0.3 mm 1 m/S 762 mmHg 73%
    04:00 +21°C° 0.3 mm 1 m/S 762 mmHg 74%
    05:00 +21°C° 0.3 mm 1 m/S 762 mmHg 76%
    06:00 +23°C° 0.1 mm 1 m/S 762 mmHg 69%
    07:00 +24°C° 0.1 mm 1 m/S 762 mmHg 62%
    08:00 +26°C° 0.1 mm 2 m/S 762 mmHg 55%
    09:00 +28°C° 0 mm 2 m/S 762 mmHg 50%
    10:00 +29°C° 0 mm 2 m/S 762 mmHg 45%
    11:00 +31°C° 0 mm 2 m/S 762 mmHg 40%
    12:00 +32°C° 0 mm 2 m/S 762 mmHg 38%
    13:00 +34°C° 0 mm 2 m/S 761 mmHg 35%
    14:00 +35°C° 0 mm 2 m/S 761 mmHg 32%
    15:00 +34°C° 0 mm 2 m/S 761 mmHg 32%
    16:00 +34°C° 0 mm 2 m/S 761 mmHg 33%
    17:00 +34°C° 0 mm 2 m/S 761 mmHg 33%
    18:00 +31°C° 0 mm 3 m/S 761 mmHg 38%
    19:00 +29°C° 0 mm 3 m/S 761 mmHg 43%
    20:00 +27°C° 0 mm 4 m/S 761 mmHg 49%
    21:00 +26°C° 0 mm 3 m/S 761 mmHg 50%
    22:00 +25°C° 0 mm 3 m/S 761 mmHg 51%
    23:00 +25°C° 0 mm 3 m/S 762 mmHg 53%

    übermorgen, 22 Juli, Montag

    Zeit Temperatur Niederschläge Wind Luftdruck Luftfeuchtigkeit
    00:00 +24°C° 0 mm 2 m/S 762 mmHg 53%
    01:00 +24°C° 0 mm 2 m/S 761 mmHg 53%
    02:00 +24°C° 0 mm 1 m/S 761 mmHg 54%
    03:00 +23°C° 0 mm 1 m/S 761 mmHg 55%
    04:00 +23°C° 0 mm 1 m/S 761 mmHg 56%
    05:00 +23°C° 0 mm 1 m/S 761 mmHg 57%
    06:00 +25°C° 0 mm 1 m/S 761 mmHg 53%
    07:00 +27°C° 0 mm 1 m/S 761 mmHg 49%
    08:00 +29°C° 0 mm 1 m/S 761 mmHg 45%
    09:00 +30°C° 0 mm 1 m/S 761 mmHg 42%
    10:00 +32°C° 0 mm 1 m/S 761 mmHg 39%
    11:00 +34°C° 0 mm 1 m/S 761 mmHg 36%
    12:00 +35°C° 0 mm 2 m/S 761 mmHg 35%
    13:00 +36°C° 0 mm 2 m/S 760 mmHg 33%
    14:00 +36°C° 0 mm 2 m/S 760 mmHg 32%
    15:00 +35°C° 0.1 mm 3 m/S 760 mmHg 36%
    16:00 +34°C° 0.1 mm 4 m/S 760 mmHg 41%
    17:00 +33°C° 0.1 mm 4 m/S 760 mmHg 45%
    18:00 +29°C° 1.7 mm 4 m/S 760 mmHg 57%
    19:00 +26°C° 1.7 mm 4 m/S 760 mmHg 69%
    20:00 +24°C° 1.7 mm 3 m/S 760 mmHg 81%
    21:00 +22°C° 0.4 mm 3 m/S 761 mmHg 82%
    22:00 +23°C° 0.4 mm 2 m/S 761 mmHg 83%
    23:00 +23°C° 0.4 mm 2 m/S 761 mmHg 84%

    23 Juli, Dienstag

    Zeit Temperatur Niederschläge Wind Luftdruck Luftfeuchtigkeit
    00:00 +23°C° 0.4 mm 2 m/S 761 mmHg 85%
    01:00 +22°C° 0.4 mm 3 m/S 761 mmHg 86%
    02:00 +21°C° 0.4 mm 4 m/S 760 mmHg 86%
    03:00 +21°C° 0 mm 4 m/S 760 mmHg 86%
    04:00 +21°C° 0 mm 4 m/S 760 mmHg 86%
    05:00 +21°C° 0 mm 5 m/S 760 mmHg 86%
    06:00 +21°C° 0 mm 5 m/S 760 mmHg 80%
    07:00 +22°C° 0 mm 6 m/S 761 mmHg 74%
    08:00 +23°C° 0 mm 6 m/S 761 mmHg 68%
    09:00 +24°C° 0 mm 6 m/S 761 mmHg 62%
    10:00 +27°C° 0 mm 6 m/S 761 mmHg 56%
    11:00 +28°C° 0 mm 6 m/S 761 mmHg 50%
    12:00 +29°C° 0 mm 6 m/S 760 mmHg 46%
    13:00 +30°C° 0 mm 6 m/S 760 mmHg 42%
    14:00 +30°C° 0 mm 5 m/S 759 mmHg 38%
    15:00 +30°C° 0 mm 5 m/S 759 mmHg 39%
    16:00 +30°C° 0 mm 5 m/S 759 mmHg 39%
    17:00 +30°C° 0 mm 5 m/S 759 mmHg 40%
    18:00 +28°C° 0 mm 5 m/S 759 mmHg 44%
    19:00 +27°C° 0 mm 4 m/S 759 mmHg 49%
    20:00 +25°C° 0 mm 4 m/S 759 mmHg 54%
    21:00 +23°C° 0 mm 4 m/S 760 mmHg 54%
    22:00 +23°C° 0 mm 5 m/S 760 mmHg 54%
    23:00 +22°C° 0 mm 5 m/S 760 mmHg 54%

    24 Juli, Mittwoch

    Zeit Temperatur Niederschläge Wind Luftdruck Luftfeuchtigkeit
    00:00 +21°C° 0 mm 4 m/S 760 mmHg 57%
    01:00 +20°C° 0 mm 4 m/S 760 mmHg 60%
    02:00 +20°C° 0 mm 4 m/S 760 mmHg 63%
    03:00 +19°C° 0 mm 4 m/S 760 mmHg 66%
    04:00 +19°C° 0 mm 4 m/S 760 mmHg 68%
    05:00 +18°C° 0 mm 3 m/S 760 mmHg 71%
    06:00 +20°C° 0 mm 4 m/S 760 mmHg 67%
    07:00 +21°C° 0 mm 4 m/S 760 mmHg 63%
    08:00 +23°C° 0 mm 5 m/S 760 mmHg 60%
    09:00 +23°C° 0 mm 5 m/S 760 mmHg 59%
    10:00 +23°C° 0 mm 5 m/S 760 mmHg 59%
    11:00 +23°C° 0 mm 5 m/S 760 mmHg 58%
    12:00 +25°C° 0 mm 5 m/S 760 mmHg 57%
    13:00 +24°C° 0 mm 6 m/S 759 mmHg 56%
    14:00 +26°C° 0 mm 6 m/S 759 mmHg 55%
    15:00 +26°C° 0.1 mm 6 m/S 759 mmHg 55%
    16:00 +27°C° 0.1 mm 6 m/S 759 mmHg 55%
    17:00 +27°C° 0.1 mm 5 m/S 758 mmHg 55%
    18:00 +25°C° 0.3 mm 5 m/S 758 mmHg 61%
    19:00 +23°C° 0.3 mm 4 m/S 759 mmHg 67%
    20:00 +22°C° 0.3 mm 3 m/S 759 mmHg 73%
    21:00 +22°C° 0.1 mm 3 m/S 759 mmHg 76%
    22:00 +21°C° 0.1 mm 4 m/S 759 mmHg 78%
    23:00 +21°C° 0.1 mm 4 m/S 759 mmHg 80%

    25 Juli, Donnerstag

    Zeit Temperatur Niederschläge Wind Luftdruck Luftfeuchtigkeit
    00:00 +20°C° 0 mm 4 m/S 759 mmHg 82%
    01:00 +20°C° 0 mm 4 m/S 759 mmHg 84%
    02:00 +19°C° 0 mm 4 m/S 759 mmHg 86%
    03:00 +19°C° 0 mm 4 m/S 759 mmHg 87%
    04:00 +19°C° 0 mm 4 m/S 759 mmHg 87%
    05:00 +18°C° 0 mm 4 m/S 759 mmHg 88%
    06:00 +20°C° 0 mm 4 m/S 759 mmHg 80%
    07:00 +22°C° 0 mm 5 m/S 760 mmHg 73%
    08:00 +25°C° 0 mm 5 m/S 760 mmHg 65%
    09:00 +26°C° 0 mm 5 m/S 759 mmHg 60%
    10:00 +28°C° 0 mm 6 m/S 759 mmHg 54%
    11:00 +29°C° 0 mm 6 m/S 759 mmHg 49%
    12:00 +30°C° 0 mm 6 m/S 759 mmHg 45%
    13:00 +32°C° 0 mm 6 m/S 758 mmHg 42%
    14:00 +33°C° 0 mm 6 m/S 758 mmHg 39%
    15:00 +33°C° 0 mm 6 m/S 758 mmHg 40%
    16:00 +32°C° 0 mm 6 m/S 758 mmHg 41%
    17:00 +32°C° 0 mm 6 m/S 757 mmHg 42%
    18:00 +30°C° 0 mm 6 m/S 758 mmHg 46%
    19:00 +29°C° 0 mm 5 m/S 758 mmHg 50%
    20:00 +28°C° 0 mm 5 m/S 758 mmHg 54%
    21:00 +27°C° 0 mm 5 m/S 758 mmHg 59%
    22:00 +25°C° 0 mm 4 m/S 758 mmHg 65%
    23:00 +23°C° 0 mm 4 m/S 758 mmHg 70%
    Mehr zeigen